sat.trackr.live / text

‹ back to catalog

STARLINK-2188

NORAD 48563 · 2021-041L

PAYLOAD ACTIVE UNKNOWN

§ Identity

Operator
Country
US
Launch date
2021-05-15
Launch site
AFETR
Launch vehicle
Mass (kg)
RCS (m²)

Purposes: comms

External: N2YO · Heavens-Above · Gunter

§ Orbital elements

Epoch: 2026-09-19T19:42:21.273984Z

Period
94.01 min
Inclination
53.1617°
Eccentricity
0.0001317
Mean motion
15.31704816 rev/d
Perigee alt
469.8 km
Apogee alt
471.6 km
Semi-major
6,848.9 km
B*
4.0796e-5
RAAN
303.2807°
Arg perigee
90.0227°
Mean anomaly
270.0925°
Rev number
29,502

§ Raw data

STARLINK-21881 48563U 21041L   26262.82107956  .00000901  00000+0  40796-4 0  99992 48563  53.1617 303.2807 0001317  90.0227 270.0925 15.31704816295025

JSON: /api/v1/satellites/48563 · /tle

For live sub-satellite position, see the globe view (requires WebGL).

§ Visibility from observer

Set your observer location to see the next 7 days of passes ≥ 10°. The values pass through the URL so the page stays shareable.

No JS? Fill the form by hand. The geolocation button needs JavaScript.